Dewpoint
56 58 58 58 59 60 60 60 60 59 59 59 59 60 60 59 59 58 59 59 57 55 54 54 53 53 54 55 54 55 55 55 55 55 55 56 55 54 55 56 58 61 62 62 61 63 60 60 61 62 61 60 60 60 60 60 61 61 61 60 61 61 60 61 62 59 57 56 57 58 59 61 63 63 62 60 60 60 59 59 60 61 59 58 62
56 56 57 58 58 59 59 59 59 58 59 60 60 60 60 59 58 58 59 58 55 55 54 53 54 53 53 54 55 55 54 54 54 55 56 57 57 57 57 56 56 57 58 58 57 59 60 60 59 61 61 60 60 60 60 62 61 60 62 61 61 60 59 60 60 58 56 55 55 55 57 59 60 61 62 62 61 61 61 59 60 60 59 60 60
54 55 56 57 58 59 59 59 59 59 60 60 60 60 60 59 59 59 59 57 55 55 54 53 54 53 54 54 55 55 55 55 53 55 56 55 55 57 57 56 56 56 56 57 56 58 59 58 58 59 60 61 60 59 59 59 59 60 60 59 58 59 59 60 61 59 56 56 55 54 53 54 55 57 59 62 63 61 60 60 61 60 60 62 62
53 54 55 56 58 59 60 60 60 60 60 60 60 60 60 59 59 59 58 56 55 56 56 55 55 55 55 56 56 54 53 56 54 54 54 54 55 55 55 55 54 54 54 53 52 54 54 54 53 54 58 60 59 58 58 58 58 58 58 58 58 58 59 60 61 61 59 57 54 53 53 53 51 52 56 60 62 62 63 63 62 62 63 63 62
53 54 55 56 58 59 60 60 60 60 60 60 60 60 60 59 59 59 58 57 57 58 57 57 56 55 55 55 54 53 53 52 51 52 55 57 54 54 54 55 55 55 55 54 53 52 53 52 51 52 54 56 58 58 57 58 58 58 58 58 56 56 57 59 60 61 61 59 57 55 52 50 51 53 56 57 60 59 61 63 64 63 62 62 62
53 53 54 57 59 59 60 60 60 60 60 60 61 61 60 60 59 58 57 57 57 57 57 55 55 54 52 51 51 51 51 50 50 51 52 53 53 53 54 55 54 53 53 52 53 52 51 51 50 51 52 53 53 52 52 52 53 57 58 58 58 57 57 57 57 59 59 59 58 57 54 52 53 55 53 50 58 59 60 61 61 62 62 62 62
53 53 55 59 59 59 60 60 60 60 60 61 61 61 60 59 59 58 58 56 56 56 55 55 53 53 52 51 51 51 50 49 50 52 52 52 54 53 53 54 54 53 53 52 51 51 51 51 51 51 52 53 54 53 53 54 54 54 54 56 57 58 56 55 57 58 60 59 58 57 58 58 56 53 52 52 52 56 58 58 59 61 61 62 62
52 52 57 59 59 59 59 60 60 60 61 61 61 61 60 59 59 58 57 57 56 55 54 54 52 52 51 51 52 51 50 51 52 52 53 54 52 52 53 53 52 51 50 50 51 51 50 50 51 52 52 53 54 52 53 53 53 54 54 53 54 55 56 57 57 58 57 58 59 57 57 57 57 57 54 53 52 52 54 56 58 58 59 59 61
51 52 57 59 59 59 59 59 60 60 61 61 61 61 60 59 58 57 57 56 56 55 54 53 52 51 51 52 52 52 52 52 54 54 53 53 52 50 50 49 49 49 50 49 50 51 53 50 50 50 51 52 54 53 53 53 53 53 53 53 52 53 53 52 50 49 52 56 58 57 57 57 56 56 56 56 52 49 51 52 53 55 56 58 59
51 52 56 58 59 59 59 59 59 60 61 61 61 61 59 58 57 57 56 56 56 55 54 53 52 52 52 52 52 52 53 53 53 52 51 51 49 48 48 49 49 50 50 51 50 50 51 52 51 50 51 53 54 52 52 53 53 53 53 52 52 52 52 51 49 48 49 50 54 55 56 55 52 50 51 52 52 51 49 47 48 47 48 51 57
51 51 53 54 56 57 57 58 58 57 58 59 60 60 59 57 57 56 56 56 55 54 53 52 51 51 53 53 52 52 52 52 51 51 51 49 48 48 48 49 49 50 51 50 51 53 53 54 53 53 54 56 54 53 53 53 52 52 52 52 52 51 50 50 51 50 49 49 49 49 49 48 47 46 46 48 47 45 46 46 47 46 45 45 48
52 53 52 53 54 54 55 57 56 56 56 58 59 59 59 57 57 56 56 55 55 54 53 52 52 52 54 53 52 51 52 51 50 51 51 49 48 48 49 49 49 50 49 49 49 50 52 51 52 50 51 51 52 52 52 52 52 51 51 51 50 50 50 50 49 49 49 49 49 49 49 49 49 48 49 48 48 47 46 45 45 46 47 46 46
52 53 52 53 53 54 54 55 55 55 56 57 57 58 58 58 57 56 56 54 54 54 53 52 53 52 53 52 51 51 51 50 51 51 50 50 49 49 49 48 49 49 48 49 48 49 51 48 48 49 50 51 50 51 50 51 51 51 51 51 50 49 49 49 48 47 48 47 47 47 47 47 48 49 50 49 48 47 45 43 45 46 44 46 47
52 52 53 53 53 53 53 54 55 55 55 56 57 57 57 57 57 56 56 54 53 54 53 52 53 53 53 52 51 52 50 50 51 51 51 50 50 49 48 49 49 49 50 49 49 50 50 50 50 49 49 49 50 50 50 51 51 50 50 49 49 48 49 49 48 47 48 48 47 47 47 47 47 48 48 48 47 46 45 44 43 44 45 45 45
51 51 52 53 53 53 53 54 54 54 54 56 56 57 57 57 57 57 56 55 53 53 53 52 53 54 53 52 52 51 50 51 51 52 51 51 51 49 48 50 49 50 50 49 51 51 51 50 49 49 49 49 49 50 52 50 50 50 50 50 49 48 49 49 47 47 48 46 46 46 47 47 46 47 46 46 47 47 47 45 43 41 41 43 44
51 51 51 51 51 51 52 54 54 55 54 55 56 57 56 56 57 57 57 57 57 55 55 53 53 54 54 52 52 52 52 51 52 52 51 52 51 50 50 50 50 51 50 51 51 51 51 50 50 49 49 49 50 49 50 50 49 50 49 49 49 52 49 48 48 48 47 47 45 44 45 45 46 46 45 44 45 46 46 46 45 43 41 40 42
50 51 51 51 52 52 53 53 53 54 55 56 56 56 56 56 56 56 56 57 57 57 55 54 53 55 53 52 53 52 52 51 52 52 52 52 52 51 51 50 51 52 51 52 52 51 51 49 49 50 49 50 49 50 50 49 49 50 49 48 49 50 50 48 48 47 47 46 45 44 44 45 45 45 44 44 44 44 44 45 45 44 43 41 39
50 50 51 51 51 52 53 54 54 55 56 56 56 57 56 56 56 56 56 56 56 57 57 55 54 54 53 52 53 52 51 51 52 52 52 52 52 52 52 51 51 52 52 52 52 52 51 54 49 50 49 49 49 50 50 49 49 48 48 49 49 49 49 48 49 47 46 47 47 43 43 43 45 45 46 45 45 43 42 42 43 45 44 41 40
49 49 50 50 51 51 52 52 53 54 56 56 56 57 56 56 56 56 56 56 56 56 57 57 57 56 54 53 53 53 52 52 52 52 53 52 52 52 52 52 52 53 53 51 52 52 52 50 50 50 50 50 49 49 49 48 49 48 48 49 49 47 48 48 48 47 47 47 45 43 43 42 44 46 45 44 45 45 42 41 42 42 44 43 41
48 49 50 50 51 51 51 52 52 53 55 56 56 56 56 56 55 56 55 55 55 55 56 56 57 57 56 54 53 53 53 53 52 51 52 52 51 52 52 52 52 53 52 51 52 52 52 51 50 50 50 50 50 49 49 48 48 48 48 49 49 48 48 47 47 48 49 47 45 44 43 41 44 44 43 44 44 44 45 41 43 41 41 44 43
48 48 49 50 50 51 51 51 52 53 55 55 56 55 55 55 55 55 54 55 54 54 55 56 57 57 56 55 53 53 53 53 53 51 51 53 51 52 52 52 53 53 52 51 52 53 53 52 51 51 50 50 50 49 49 48 48 48 48 49 48 48 48 48 48 47 48 46 46 44 44 43 45 43 43 44 44 44 41 40 41 39 39 40 38
47 47 48 49 50 50 51 51 52 53 54 55 55 55 54 54 55 53 54 54 54 54 55 56 57 56 56 56 56 56 56 54 54 52 51 52 53 52 52 52 52 53 53 51 51 53 53 53 52 51 50 50 50 49 50 49 47 49 47 50 47 48 49 48 46 46 47 47 46 44 44 44 45 44 43 43 45 42 38 37 39 39 38 40 41
44 45 46 48 49 50 51 52 52 52 53 54 55 55 54 54 54 54 54 54 55 55 56 56 55 55 55 55 55 56 55 54 55 55 54 55 55 55 56 53 53 53 53 52 51 52 53 53 53 53 51 50 50 49 50 50 48 48 48 48 49 46 48 48 47 45 47 47 45 46 44 44 45 43 44 45 43 41 40 39 39 40 38 40 41
44 45 46 46 47 48 49 49 51 52 52 53 53 54 55 55 55 55 55 56 56 56 56 55 54 54 54 54 54 55 55 55 55 55 55 55 56 57 57 56 55 53 53 53 53 53 53 53 53 53 52 51 51 50 50 49 49 48 49 48 49 46 46 48 47 46 46 47 44 44 45 45 45 43 44 43 42 41 41 40 39 40 38 39 41
43 44 44 45 45 45 45 45 45 46 47 49 52 53 54 55 55 56 56 55 55 55 55 55 55 54 54 54 54 53 54 54 54 55 54 55 56 56 55 56 55 55 55 55 55 54 53 53 53 52 52 52 52 51 50 50 49 49 48 48 49 47 46 47 48 46 48 46 44 42 45 46 45 44 44 42 41 41 41 39 36 36 34 37 36
41 41 41 42 43 44 43 43 43 43 44 46 48 51 52 54 54 54 55 54 54 55 54 54 54 54 54 53 53 53 54 53 53 53 54 55 55 56 55 54 55 55 54 54 55 54 54 53 53 53 53 52 52 52 51 50 49 49 49 49 49 48 47 46 48 48 47 46 44 42 46 45 44 43 43 43 42 40 38 35 33 33 32 34 34
41 39 38 39 39 40 41 42 42 42 42 43 43 42 43 44 46 49 53 54 54 54 54 54 54 53 54 53 53 53 53 53 53 53 54 55 55 55 56 55 56 55 54 54 54 54 54 54 54 55 54 54 54 54 53 53 51 50 49 49 49 49 48 47 47 48 48 46 45 44 46 46 44 43 44 42 40 39 38 36 37 34 35 34 35
38 37 37 36 37 37 37 37 38 38 39 40 41 40 40 40 40 41 43 48 53 54 54 53 54 53 53 53 54 54 54 54 53 53 53 54 55 55 55 55 56 55 55 55 54 54 54 54 54 54 55 55 54 54 54 54 53 52 51 50 50 49 48 47 47 48 48 47 46 46 45 44 44 44 44 42 37 35 37 36 35 36 37 35 34
36 36 35 35 36 36 36 36 36 36 36 38 38 39 40 41 41 40 40 42 45 47 49 52 52 53 53 53 53 53 53 53 53 53 53 54 55 55 54 54 53 54 54 55 55 55 54 54 53 53 54 53 54 54 55 54 54 54 53 52 51 50 49 48 47 47 47 46 46 45 44 44 46 48 46 43 41 41 37 34 35 36 37 34 33
36 36 36 36 35 35 35 35 35 35 36 36 37 35 35 37 38 38 39 41 40 41 41 43 48 51 51 52 52 53 53 53 52 53 53 53 53 53 52 52 53 53 52 53 54 54 53 53 53 53 53 53 54 54 53 51 51 54 53 53 52 51 50 49 48 47 45 45 45 45 46 51 51 48 43 40 40 41 42 40 36 34 34 33 32
37 36 36 35 35 35 35 34 33 34 35 36 36 34 33 35 36 37 37 40 39 39 40 39 39 40 39 41 47 51 53 53 52 51 51 52 53 52 52 52 52 52 52 52 53 53 53 53 53 52 52 53 54 54 50 46 45 48 52 51 51 51 50 49 48 46 44 44 44 44 47 50 46 44 41 38 37 37 37 37 38 39 40 35 33
40 38 37 36 36 35 34 35 35 34 35 35 35 33 34 35 36 35 35 39 38 39 38 37 38 41 41 41 42 41 44 46 47 48 48 50 51 51 52 52 51 51 52 51 52 53 53 52 51 50 51 53 53 51 48 46 45 45 48 52 52 52 50 49 47 46 44 44 44 45 46 47 43 41 39 39 39 38 37 37 36 36 36 38 39
41 41 41 39 38 38 37 35 33 34 34 35 35 34 34 35 36 38 36 37 37 37 35 35 37 37 38 41 41 41 41 42 42 43 43 44 45 46 47 47 48 50 50 50 53 53 53 52 51 51 51 50 47 39 41 43 43 43 43 47 50 51 51 48 47 46 44 44 43 45 45 46 46 48 47 42 41 42 40 38 38 38 37 36 35
40 41 41 41 41 39 36 35 35 36 36 37 35 32 35 39 38 38 36 36 35 37 37 37 38 38 36 36 37 36 36 38 41 41 41 41 41 40 42 43 44 45 47 48 48 50 51 50 50 49 49 40 39 39 39 42 42 41 41 44 48 47 47 47 47 45 45 44 43 41 41 42 42 42 42 42 43 43 42 41 39 37 38 40 39
39 41 43 42 41 40 38 37 36 36 36 36 37 38 37 36 37 36 37 36 37 37 37 37 37 39 38 38 38 37 36 38 39 39 39 39 40 40 42 42 42 42 43 44 46 47 48 50 48 44 40 37 37 37 38 39 40 40 41 43 44 44 43 43 42 42 42 41 41 41 39 40 40 42 45 43 42 41 40 40 38 37 36 36 36
38 39 39 41 42 42 42 42 40 36 33 35 37 38 37 37 37 36 36 37 37 36 37 38 38 38 38 37 37 36 38 40 40 40 40 40 40 40 40 40 41 41 42 42 42 43 46 43 41 38 36 34 35 37 37 38 39 39 40 42 41 40 40 41 41 42 42 42 41 41 40 41 41 39 37 37 39 39 37 36 35 34 34 34 34
38 38 40 43 42 42 43 42 40 43 42 39 38 37 36 36 35 36 36 37 37 36 37 38 39 39 40 39 38 37 38 39 39 39 39 39 40 41 41 42 41 40 40 40 39 40 40 39 37 35 34 33 34 36 37 38 38 37 38 39 39 38 38 38 38 40 42 42 43 42 41 37 37 37 36 35 36 36 33 33 32 31 32 31 32
31 36 41 41 39 40 43 37 40 43 45 40 39 39 38 36 36 37 36 37 36 35 37 38 37 39 39 38 39 38 38 39 39 39 41 42 42 41 40 42 41 40 40 38 38 37 36 36 34 33 33 34 33 36 37 37 37 37 38 37 37 37 37 37 38 38 37 39 44 45 40 34 33 34 34 34 34 35 31 32 31 30 29 29 30
30 33 35 37 37 38 43 42 38 42 38 39 40 38 37 36 36 36 37 34 34 35 36 36 37 38 39 39 39 39 39 39 39 39 40 40 40 41 41 40 40 40 39 37 37 35 34 33 33 34 38 33 33 35 36 35 36 36 37 36 36 35 35 35 34 34 34 35 35 39 39 36 34 35 33 33 34 33 31 31 30 28 28 27 29
29 31 31 32 36 32 28 29 32 31 39 40 40 38 36 36 37 37 35 34 36 37 36 37 39 39 38 39 39 40 40 41 41 41 41 41 41 40 40 39 38 38 37 35 35 34 33 32 32 32 33 31 31 32 35 35 36 36 36 36 35 32 32 32 33 32 34 32 32 33 35 33 33 33 33 33 33 34 31 31 30 27 27 27 29
28 30 34 28 29 30 28 27 28 30 34 36 34 32 33 38 38 36 35 37 37 37 38 40 38 38 39 39 40 39 39 42 41 41 41 41 40 39 39 39 38 36 35 34 33 32 32 31 30 30 30 30 31 30 34 35 36 36 35 34 31 31 31 32 34 34 33 33 32 33 34 34 33 33 33 33 33 33 35 31 29 28 30 32 32
28 31 31 30 29 28 28 29 30 32 33 33 32 32 34 35 35 35 36 37 38 39 39 38 38 39 39 38 38 39 41 42 41 39 38 38 39 39 39 39 37 36 35 33 32 32 31 30 30 30 30 31 34 35 32 35 35 34 34 33 32 33 34 34 33 34 34 33 32 33 33 34 33 33 33 33 33 33 33 35 31 33 33 33 32
24 23 25 29 27 27 29 27 30 32 34 34 32 30 31 34 34 33 36 38 39 38 38 39 38 37 38 38 39 39 39 42 40 39 39 39 39 39 38 38 37 35 34 33 31 31 30 30 29 29 30 30 31 33 34 32 34 34 34 34 34 35 34 34 34 34 34 33 34 34 36 35 33 33 33 33 33 33 34 32 34 33 33 33 33
23 24 24 28 25 27 29 29 29 30 33 33 32 31 32 32 31 31 34 37 38 38 38 37 37 38 38 39 40 40 39 40 40 39 39 38 39 38 37 38 37 36 34 33 31 31 30 29 28 29 30 30 31 30 34 33 32 33 34 34 34 34 35 35 34 34 34 34 33 33 34 35 34 33 33 33 33 34 31 33 34 34 34 34 32
24 24 27 28 25 26 29 28 27 27 27 31 33 31 33 32 34 36 37 35 35 35 35 35 37 38 37 39 38 38 39 38 39 38 39 39 38 37 37 36 37 35 34 33 31 31 30 29 28 29 30 31 32 30 31 34 34 34 33 33 33 34 34 34 34 35 33 34 33 33 33 33 34 34 34 33 33 34 33 34 34 34 36 31 30
26 27 27 29 28 28 28 28 27 27 28 30 33 32 31 34 34 37 36 36 36 37 37 37 37 37 38 38 38 38 38 37 37 37 37 39 40 38 38 37 36 36 34 33 32 30 30 29 29 29 30 31 31 30 31 32 35 34 34 34 34 34 35 35 34 33 34 34 34 34 34 33 34 33 31 30 30 31 34 34 34 34 30 28 28
28 28 30 30 30 29 29 29 29 29 32 33 31 33 33 34 35 35 35 35 36 36 36 36 36 37 37 38 38 37 36 36 35 35 36 38 38 38 38 37 36 36 35 33 33 32 31 30 30 31 32 31 30 31 32 32 33 32 33 34 33 34 35 33 32 32 33 33 33 34 32 33 33 33 33 33 33 33 30 29 27 28 28 28 30
30 30 31 30 30 30 30 30 31 31 33 35 35 33 33 34 34 34 34 33 33 34 33 34 36 36 36 36 37 35 36 34 33 32 34 35 36 37 38 38 37 36 36 34 34 33 32 32 34 32 32 32 32 33 34 34 33 33 33 34 34 33 30 30 30 30 31 33 31 32 31 29 28 28 28 27 27 28 28 29 28 28 28 28 31
31 31 32 32 32 33 32 31 31 33 35 35 35 35 37 35 35 35 34 33 33 34 35 36 36 37 37 35 37 36 35 33 31 29 29 30 31 31 35 36 36 37 38 37 35 36 35 34 32 32 31 31 32 32 34 33 33 33 32 31 30 30 31 31 33 33 32 29 28 29 28 27 26 24 24 24 26 26 27 27 28 28 29 28 28
33 34 34 34 34 34 33 33 33 34 35 36 36 36 37 39 38 38 37 36 35 35 35 35 35 35 36 35 35 35 35 32 32 30 29 29 31 33 32 33 35 35 36 36 35 35 35 34 33 33 32 29 31 32 33 33 33 33 33 33 33 33 33 33 33 33 31 26 24 23 22 22 22 23 23 23 23 25 25 26 27 29 27 28 28
35 35 35 35 35 35 34 33 34 35 36 37 36 37 38 38 38 38 37 37 37 35 34 34 34 35 34 34 34 35 35 33 33 32 30 30 28 30 32 33 34 34 34 34 34 34 34 34 34 31 32 33 33 33 33 33 33 33 33 32 33 33 33 33 32 28 26 24 23 22 22 21 23 24 23 24 24 24 24 24 26 27 28 28 28